SVYATOBOR 1 (RS60S)

Last updated on Fri Dec 19 2025 00:03:11 GMT+0000 (Coordinated Universal Time)

1 57187U 23091X 25352.60362980 .00007650 00000+0 32895-3 0 9991 2 57187 97.5371 50.6343 0010449 14.8809 345.2733 15.22890131136796
UTC large
Height (km)
Speed (km/s)
/
Latitude / Longitude
Inclination (degrees)
Orbital Period (minutes)
Azimuth
Elevation
Range (km)
Doppler Factor

Next 0 passes for location: London (51.5072 / 0.1276)

Sorry there are no passes over London.